Satellite: SO-50
Catalog number: 27607
Epoch time:      09337.82463169
Element set:      47
Inclination:      064.5590 deg
RA of node:       229.8779 deg
Eccentricity:    0.0046854
Arg of perigee:   159.8194 deg
Mean anomaly:     200.4741 deg
Mean motion:   14.71478920 rev/day
Decay rate:       -5.5e-07 rev/day^2
Epoch rev:           37363
Checksum:              341

Satellite: CO-55
Catalog number: 27844
Epoch time:      09337.58700765
Element set:     725
Inclination:      098.7120 deg
RA of node:       344.3635 deg
Eccentricity:    0.0010278
Arg of perigee:   019.8360 deg
Mean anomaly:     340.3202 deg
Mean motion:   14.20670941 rev/day
Decay rate:        7.2e-07 rev/day^2
Epoch rev:           33331
Checksum:              290

Satellite: CO-57
Catalog number: 27848
Epoch time:      09337.72925771
Element set:     677
Inclination:      098.7167 deg
RA of node:       343.5724 deg
Eccentricity:    0.0010329
Arg of perigee:   023.2849 deg
Mean anomaly:     336.8769 deg
Mean motion:   14.20468443 rev/day
Decay rate:        4.6e-07 rev/day^2
Epoch rev:           33329
Checksum:              351

Satellite: AO-51
Catalog number: 28375
Epoch time:      09336.52836688
Element set:    0548
Inclination:      098.0532 deg
RA of node:       336.3424 deg
Eccentricity:    0.0084461
Arg of perigee:   334.9344 deg
Mean anomaly:     024.7758 deg
Mean motion:   14.40661273 rev/day
Decay rate:        2.6e-07 rev/day^2
Epoch rev:           28519
Checksum:              331

Satellite: CO-56
Catalog number: 28941
Epoch time:      09297.68475575
Element set:     556
Inclination:      098.0955 deg
RA of node:       138.9518 deg
Eccentricity:    0.0011688
Arg of perigee:   319.8691 deg
Mean anomaly:     040.7485 deg
Mean motion:   16.46998778 rev/day
Decay rate:  1.4491492e-01 rev/day^2
Epoch rev:           20790
Checksum:              407

Satellite: GENESAT1
Catalog number: 29655
Epoch time:      09337.88996673
Element set:     879
Inclination:      040.0289 deg
RA of node:       196.8480 deg
Eccentricity:    0.0005421
Arg of perigee:   316.5182 deg
Mean anomaly:     043.5208 deg
Mean motion:   15.70485252 rev/day
Decay rate:     1.5560e-04 rev/day^2
Epoch rev:           16911
Checksum:              330

Satellite: CP3
Catalog number: 31129
Epoch time:      09337.67556998
Element set:     368
Inclination:      097.9679 deg
RA of node:       022.4418 deg
Eccentricity:    0.0103301
Arg of perigee:   119.8819 deg
Mean anomaly:     241.2689 deg
Mean motion:   14.52186742 rev/day
Decay rate:       1.08e-06 rev/day^2
Epoch rev:           13948
Checksum:              341

Satellite: CO-65
Catalog number: 32785
Epoch time:      09337.24395322
Element set:     540
Inclination:      097.9260 deg
RA of node:       039.6236 deg
Eccentricity:    0.0014560
Arg of perigee:   198.0386 deg
Mean anomaly:     162.0307 deg
Mean motion:   14.81550679 rev/day
Decay rate:        8.2e-07 rev/day^2
Epoch rev:            8647
Checksum:              321

Satellite: KKS-1
Catalog number: 33493
Epoch time:      09337.71312471
Element set:     997
Inclination:      098.0700 deg
RA of node:       090.8120 deg
Eccentricity:    0.0021062
Arg of perigee:   055.3946 deg
Mean anomaly:     304.9254 deg
Mean motion:   14.80791036 rev/day
Decay rate:       3.68e-06 rev/day^2
Epoch rev:            4655
Checksum:              296

Satellite: SOHLA-1
Catalog number: 33496
Epoch time:      09337.80396812
Element set:     961
Inclination:      098.0490 deg
RA of node:       084.5807 deg
Eccentricity:    0.0007707
Arg of perigee:   100.1682 deg
Mean anomaly:     260.0395 deg
Mean motion:   14.69457981 rev/day
Decay rate:        2.5e-07 rev/day^2
Epoch rev:            4618
Checksum:              318

/EX
SB KEPS @ AMSAT  $ORB09337.W
Orbital Elements  09337.WEATHER

HR AMSAT ORBITAL ELEMENTS FOR WEATHER SATELLITES
FROM WA5QGD FORT WORTH,TX December 3, 2009
Send Subscribe/unsubscribe to KEPS at http://www.amsat.org/mailman/listinfo/kep
BID: ORB09337.W
TO ALL RADIO AMATEURS BT

Satellite: NOAA-10
Catalog number: 16969
Epoch time:      09336.60156724
Element set:    0858
Inclination:      098.6775 deg
RA of node:       002.2155 deg
Eccentricity:    0.0013051
Arg of perigee:   067.0790 deg
Mean anomaly:     293.1772 deg
Mean motion:   14.27400961 rev/day
Decay rate:        8.1e-07 rev/day^2
Epoch rev:           20753
Checksum:              303

Satellite: NOAA-11
Catalog number: 19531
Epoch time:      09336.65243752
Element set:    0873
Inclination:      098.7801 deg
RA of node:       063.9650 deg
Eccentricity:    0.0011522
Arg of perigee:   352.2008 deg
Mean anomaly:     007.8992 deg
Mean motion:   14.14910021 rev/day
Decay rate:       2.53e-06 rev/day^2
Epoch rev:           09334
Checksum:              284

Satellite: NOAA-12
Catalog number: 21263
Epoch time:      09336.97472972
Element set:    0377
Inclination:      098.7706 deg
RA of node:       345.1192 deg
Eccentricity:    0.0012750
Arg of perigee:   020.6009 deg
Mean anomaly:     339.5682 deg
Mean motion:   14.25605218 rev/day
Decay rate:        5.9e-07 rev/day^2
Epoch rev:           96444
Checksum:              318

